{"data":{"norad_id":57125,"epoch":"2026-05-25T04:24:56.329056Z","epoch_age_seconds":56389,"freshness":"FRESH","line1":"1 57125U 23090AA  26145.18398529 -.00000095  00000+0  60894-5 0  9993","line2":"2 57125  43.0033 191.2175 0001733 285.3645  74.7015 15.27570806162057","mean_motion":15.27570806,"eccentricity":0.0001733,"inclination_deg":43.0033,"raan_deg":191.2175,"arg_perigee_deg":285.3645,"mean_anomaly_deg":74.7015,"bstar":6.0894e-6,"rev_number":16205,"period_min":94.267316077524,"perigee_km":481.88757799982,"apogee_km":484.2656746427,"semimajor_km":6861.2136263213,"source":"CELESTRAK","updated_at":"2026-05-25T13:38:18.244188Z"}}